DW9245 Weather Reports


Display with metric or nautical units.
time (UTC)temp
F
wind
direction
speed
MPH
gust
MPH
rain 1hr
in
rain 24hr
in
rain mn
in
humidity
%
barometer
mb
20190119095009 49 135 2.0 0.0 0.00 0.00 0.00 57 1019.5
20190119090009 50 135 3.0 0.0 0.00 0.00 0.00 54 1019.3
20190119085010 50 180 2.0 0.0 0.00 0.00 0.00 54 1019.2
20190119084009 51 135 3.0 0.0 0.00 0.00 0.00 54 1019.3
20190119083008 51 180 2.0 0.0 0.00 0.00 0.00 53 1019.5
20190119082008 52 180 4.0 0.0 0.00 0.00 0.00 53 1019.3
20190119081009 52 180 3.0 0.0 0.00 0.00 0.00 52 1019.5
20190119074008 52 0 5.0 0.0 0.00 0.00 0.00 49 1019.6
20190119073009 52 135 4.0 0.0 0.00 0.00 0.00 48 1019.5
20190119071008 53 225 4.0 0.0 0.00 0.00 0.00 47 1019.7
20190119070008 54 180 4.0 0.0 0.00 0.00 0.00 46 1019.7
20190119063008 53 135 5.0 0.0 0.00 0.00 0.00 47 1019.8
20190119061009 53 135 7.0 0.0 0.00 0.00 0.00 47 1020.0
20190119051009 53 135 9.0 0.0 0.00 0.00 0.00 46 1020.4
20190119050009 54 180 2.0 0.0 0.00 0.00 0.00 46 1020.6
20190119045008 54 270 4.0 0.0 0.00 0.00 0.00 45 1020.6
20190119044009 54 180 5.0 0.0 0.00 0.00 0.00 44 1020.7
20190119043009 56 270 5.0 0.0 0.00 0.00 0.00 44 1020.9
20190119042008 52 0 5.0 0.0 0.00 0.00 0.00 49 1021.1
20190119034009 51 180 4.0 0.0 0.00 0.00 0.00 50 1021.8
20190119032008 49 112 4.0 0.0 0.00 0.00 0.00 55 1022.2
20190119025008 48 90 3.0 0.0 0.00 0.00 0.00 58 1023.0
20190119024009 46 225 3.0 0.0 0.00 0.00 0.00 64 1023.2
20190119023008 45 180 2.0 0.0 0.00 0.00 0.00 65 1023.4
20190119022009 47 45 2.0 0.0 0.00 0.00 0.00 60 1023.7
20190119021008 44 135 2.0 0.0 0.00 0.00 0.00 65 1023.9
20190119020011 44 135 3.0 0.0 0.00 0.00 0.00 68 1024.0
20190119015008 45 45 4.0 0.0 0.00 0.00 0.00 66 1024.0
20190119013009 43 225 2.0 0.0 0.00 0.00 0.00 72 1024.2
20190119005009 39 225 2.0 0.0 0.00 0.00 0.00 80 1024.3
20190118230012 35 0 2.0 0.0 0.00 0.00 0.00 86 1024.3
20190118223009 35 0 0.0 0.0 0.00 0.00 0.00 87 1024.1
20190118221008 35 0 0.0 0.0 0.00 0.00 0.00 87 1024.1
20190118215009 36 180 0.0 0.0 0.00 0.00 0.00 84 1023.8
20190118212009 36 135 2.0 0.0 0.00 0.00 0.00 86 1023.5
20190118210009 35 0 2.0 0.0 0.00 0.00 0.00 86 1023.4
20190118204009 36 0 0.0 0.0 0.00 0.00 0.00 86 1023.2
20190118203008 35 0 0.0 0.0 0.00 0.00 0.00 86 1023.3
20190118195009 36 0 3.0 0.0 0.00 0.00 0.00 86 1023.0
20190118194008 36 0 2.0 0.0 0.00 0.00 0.00 88 1023.0
20190118192009 37 135 0.0 0.0 0.00 0.00 0.00 84 1023.3
20190118191008 37 180 0.0 0.0 0.00 0.00 0.00 84 1023.4
20190118185008 37 45 0.0 0.0 0.00 0.00 0.00 86 1023.2
20190118183009 36 0 0.0 0.0 0.00 0.00 0.00 86 1023.1
20190118181008 38 0 0.0 0.0 0.00 0.00 0.00 84 1023.1
20190118180009 38 0 0.0 0.0 0.00 0.00 0.00 84 1023.0
20190118175009 38 0 4.0 0.0 0.00 0.00 0.00 83 1023.3
20190118173009 38 0 1.0 0.0 0.00 0.00 0.00 83 1023.2
20190118172009 38 0 3.0 0.0 0.00 0.00 0.00 83 1023.4
20190118162008 37 0 0.0 0.0 0.00 0.00 0.00 85 1023.8
20190118154008 39 225 1.0 0.0 0.00 0.00 0.00 81 1023.6
20190118152009 39 135 1.0 0.0 0.00 0.00 0.00 80 1023.3
20190118151009 38 180 2.0 0.0 0.00 0.00 0.00 81 1023.4
20190118144009 39 135 2.0 0.0 0.00 0.00 0.00 80 1023.4
20190118143009 39 90 2.0 0.0 0.00 0.00 0.00 80 1023.4
20190118141009 41 180 2.0 0.0 0.00 0.00 0.00 77 1023.6
20190118135009 39 202 1.0 0.0 0.00 0.00 0.00 79 1023.9
20190118125009 40 0 2.0 0.0 0.00 0.00 0.00 76 1023.3
20190118124009 41 225 1.0 0.0 0.00 0.00 0.00 75 1023.4
20190118121009 42 0 2.0 0.0 0.00 0.00 0.00 76 1023.4
20190118120009 41 0 2.0 0.0 0.00 0.00 0.00 76 1023.4
20190118112009 41 0 4.0 0.0 0.00 0.00 0.00 74 1023.7
20190118111008 42 45 2.0 0.0 0.00 0.00 0.00 73 1023.7
20190118110012 43 180 2.0 0.0 0.00 0.00 0.00 73 1023.8
20190118105013 42 90 4.0 0.0 0.00 0.00 0.00 73 1023.8
20190118104008 42 0 3.0 0.0 0.00 0.00 0.00 73 1023.6
20190118102009 42 225 3.0 0.0 0.00 0.00 0.00 72 1023.4